Terminal Aerodrome Forecast
Issued by NWS Hastings, NE

Home | Current Version | Previous Version | Text Only | Print | Product List | Glossary On
Versions: 1 2 3 4 5 6 7 8 9 10 11 12 13 14 15 16 17 18 19 20 21
000
FTUS43 KGID 161955 AAA
TAFGRI
TAF AMD
KGRI 161955Z 1620/1718 30009KT P6SM SCT025 BKN045
     FM162100 33013KT P6SM BKN045
     FM170000 34012KT P6SM SCT080
     FM170600 29008KT P6SM SKC=

USA.gov is the U.S. government's official web portal to all federal, state and local government web resources and services.